1487390400.81,19128,11.94,73178.3,-13.35,-27.23,-27.19,0,*6E
1487390402.06,19129,11.94,73176.8,-13.35,-27.39,-27.29,0,*67
1487390403.33,19130,11.94,73176.0,-13.35,-27.39,-27.39,0,*6E
1487390404.59,19131,11.94,73176.8,-13.35,-27.45,-27.45,0,*6F
1487390405.82,19132,11.94,73180.3,-13.35,-27.55,-27.45,0,*6D
1487390407.12,19133,11.94,73176.0,-13.33,-27.39,-27.39,0,*6B
1487390408.42,19134,11.94,73178.8,-13.37,-27.61,-27.61,0,*68
1487390409.63,19135,11.94,73174.5,-13.35,-27.71,-27.71,0,*6B
1487390410.85,19136,11.94,73178.5,-13.35,-27.71,-27.55,0,*6E
1487390412.13,19137,11.94,73178.8,-13.33,-27.61,-27.55,0,*68
1487390413.4,19138,11.94,73176.8,-13.35,-26.93,-26.77,0,*6C
1487390414.64,19139,11.94,73176.0,-13.35,-27.23,-27.03,0,*65
1487390415.88,19140,11.94,73176.5,-13.35,-27.39,-27.29,0,*68
1487390417.13,19141,11.94,73180.0,-13.35,-27.45,-27.29,0,*62
1487390418.38,19142,11.94,73180.3,-13.35,-27.39,-27.29,0,*6A
1487390419.62,19143,11.94,73176.0,-13.35,-27.55,-27.45,0,*6B
1487390420.88,19144,11.94,73178.8,-13.35,-27.61,-27.45,0,*6B
1487390422.15,19145,11.94,73180.3,-13.35,-27.39,-27.23,0,*67
1487390423.42,19146,11.94,73180.8,-13.35,-27.39,-27.39,0,*6F
1487390424.66,19147,11.94,73176.0,-13.35,-27.39,-27.29,0,*6F
1487390425.96,19148,11.94,73176.8,-13.33,-27.45,-27.39,0,*6C
1487390427.24,19149,11.94,73178.8,-13.33,-27.61,-27.55,0,*61
1487390428.48,19150,11.94,73180.8,-13.33,-27.71,-27.55,0,*68
1487390429.72,19151,11.94,73176.5,-13.35,-27.89,-27.61,0,*6F
1487390430.96,19152,11.94,73176.3,-13.33,-27.71,-27.55,0,*6A
1487390432.21,19153,11.94,73178.8,-13.33,-27.77,-27.55,0,*6D
1487390433.45,19154,11.94,73178.5,-13.33,-27.89,-27.71,0,*6D
1487390434.72,19155,11.94,73176.3,-13.33,-27.89,-27.61,0,*6D
1487390435.96,19156,11.94,73178.5,-13.33,-27.77,-27.55,0,*68
1487390437.2,19157,11.94,73178.0,-13.33,-27.77,-27.71,0,*6F
1487390438.47,19158,11.94,73176.8,-13.33,-27.89,-27.61,0,*60
1487390439.69,19159,11.94,73176.5,-13.35,-27.93,-27.71,0,*6D
1487390440.93,19160,11.94,73178.0,-13.35,-27.89,-27.61,0,*6D
1487390442.15,19161,11.94,73176.8,-13.35,-27.71,-27.55,0,*6C
1487390443.36,19162,11.94,73176.0,-13.35,-27.77,-27.55,0,*69
1487390444.58,19163,11.94,73176.3,-13.35,-27.71,-27.55,0,*6E
1487390445.84,19164,11.94,73180.0,-13.37,-27.51,-27.45,0,*68
1487390447.08,19165,11.94,73180.5,-13.35,-27.77,-27.61,0,*69
1487390448.3,19166,11.94,73180.3,-13.35,-27.71,-27.55,0,*6B
1487390449.54,19167,11.94,73176.3,-13.37,-27.77,-27.51,0,*6A
1487390450.76,19168,11.94,73178.3,-13.35,-27.77,-27.55,0,*63
1487390452.02,19169,11.94,73178.3,-13.37,-27.99,-27.67,0,*61
1487390453.3,19170,11.94,73182.8,-13.35,-27.61,-27.39,0,*67
1487390454.54,19171,11.94,73176.5,-13.35,-27.55,-27.39,0,*61
1487390455.81,19172,11.94,73178.5,-13.35,-27.61,-27.39,0,*65
1487390457.03,19173,11.94,73178.8,-13.35,-27.71,-27.55,0,*6F
1487390458.25,19174,11.94,73178.5,-13.35,-27.89,-27.55,0,*6F
1487390459.49,19175,11.94,73176.5,-13.33,-27.55,-27.29,0,*62
1487390460.76,19176,11.94,73180.0,-13.35,-27.61,-27.45,0,*6A
1487390462.05,19177,11.94,73180.0,-13.37,-27.83,-27.61,0,*63
1487390463.29,19178,11.94,73180.5,-13.35,-27.89,-27.61,0,*64
1487390464.56,19179,11.94,73182.8,-13.37,-27.99,-27.67,0,*60
1487390465.79,19180,11.94,73178.0,-13.35,-27.89,-27.45,0,*65
1487390467.06,19181,11.94,73182.0,-13.37,-27.93,-27.61,0,*6B
1487390468.28,19182,11.94,73178.0,-13.35,-27.89,-27.55,0,*66
1487390469.49,19183,11.94,73180.3,-13.35,-27.89,-27.55,0,*67
1487390470.74,19184,11.94,73178.8,-13.35,-28.05,-27.71,0,*6D
1487390472.03,19185,11.94,73182.3,-13.37,-28.09,-27.83,0,*6F
1487390473.29,19186,11.94,73180.0,-13.37,-28.15,-27.83,0,*61
1487390474.56,19187,11.94,73180.3,-13.37,-27.99,-27.67,0,*61
1487390475.8,19188,11.94,73180.0,-13.35,-27.89,-27.61,0,*6B
1487390477.06,19189,11.94,73182.3,-13.37,-27.77,-27.45,0,*6F
1487390478.35,19190,11.94,73180.3,-13.37,-27.99,-27.61,0,*61
1487390479.59,19191,11.94,73176.5,-13.37,-28.15,-27.93,0,*66
1487390480.86,19192,11.94,73178.8,-13.37,-28.09,-27.67,0,*63
1487390482.12,19193,11.94,73180.8,-13.37,-27.77,-27.45,0,*64
1487390483.39,19194,11.94,73176.0,-13.35,-27.61,-27.39,0,*6D
1487390484.7,19195,11.94,73170.8,-13.37,-27.61,-27.35,0,*62
1487390485.93,19196,11.94,73168.5,-13.37,-27.51,-27.13,0,*66
1487390487.2,19197,11.94,73168.5,-13.37,-27.45,-27.13,0,*62
1487390488.49,19198,11.94,73168.0,-13.37,-27.35,-26.97,0,*67
1487390489.73,19199,11.94,73170.8,-13.35,-27.45,-27.07,0,*6B
1487390490.96,19200,11.94,73174.3,-13.35,-27.67,-27.29,0,*64
1487390492.22,19201,11.94,73172.3,-13.37,-27.67,-27.45,0,*6D
1487390493.46,19202,11.94,73170.5,-13.37,-27.77,-27.51,0,*6A
1487390494.75,19203,11.94,73164.5,-13.37,-27.83,-27.61,0,*63
1487390496.0,19204,11.94,73180.0,-13.35,-27.61,-27.29,0,*66
1487390497.27,19205,11.94,73182.3,-13.35,-27.39,-27.23,0,*60
1487390498.51,19206,11.94,73180.5,-13.37,-27.13,-26.61,0,*6E
1487390499.75,19207,11.94,73176.8,-13.37,-27.51,-27.07,0,*68
1487390500.99,19208,11.94,73178.8,-13.35,-27.71,-27.35,0,*66
1487390502.26,19209,11.94,73172.3,-13.35,-27.23,-26.77,0,*67
1487390503.5,19210,11.94,73176.5,-13.37,-27.51,-27.13,0,*6B
1487390504.74,19211,11.94,73174.8,-13.35,-27.39,-27.03,0,*67
1487390506.01,19212,11.94,73176.5,-13.35,-27.61,-27.23,0,*6B
1487390507.23,19213,11.94,73172.0,-13.35,-27.77,-27.55,0,*6C
1487390508.49,19214,11.94,73176.8,-13.33,-27.77,-27.45,0,*6C
1487390509.76,19215,11.94,73174.3,-13.33,-27.77,-27.39,0,*66
1487390511.03,19216,11.94,73176.0,-13.33,-27.55,-27.19,0,*67
1487390512.25,19217,11.94,73180.3,-13.35,-27.71,-27.29,0,*65
1487390513.47,19218,11.94,73178.5,-13.35,-27.89,-27.55,0,*66
1487390514.68,19219,11.94,73174.8,-13.35,-27.93,-27.55,0,*6C
1487390515.92,19220,11.94,73174.5,-13.35,-27.93,-27.45,0,*67
1487390517.19,19221,11.94,73172.0,-13.37,-27.93,-27.61,0,*62
1487390518.4,19222,11.94,73178.5,-13.35,-27.93,-27.55,0,*64
1487390519.69,19223,11.94,73176.8,-13.37,-27.83,-27.45,0,*67
1487390520.93,19224,11.94,73174.5,-13.35,-27.77,-27.39,0,*62
1487390522.15,19225,11.94,73180.0,-13.35,-27.93,-27.55,0,*63
1487390523.43,19226,11.94,73174.8,-13.37,-27.83,-27.35,0,*65
1487390524.67,19227,11.94,73178.0,-13.35,-27.89,-27.45,0,*6B
1487390525.89,19228,11.94,73178.3,-13.35,-27.93,-27.55,0,*6E
1487390527.13,19229,11.94,73172.8,-13.35,-28.09,-27.55,0,*63
1487390528.4,19230,11.94,73176.0,-13.35,-28.05,-27.61,0,*60
1487390529.67,19231,11.94,73174.3,-13.35,-28.09,-27.61,0,*6D
1487390530.91,19232,11.94,73174.5,-13.35,-27.93,-27.39,0,*6F
1487390532.15,19233,11.94,73174.0,-13.35,-27.93,-27.45,0,*65
1487390533.44,19234,11.94,73170.3,-13.37,-27.83,-27.35,0,*66
1487390534.7,19235,11.94,73172.3,-13.37,-27.51,-27.23,0,*6F
1487390535.94,19236,11.94,73176.3,-13.35,-27.55,-27.23,0,*6A
1487390537.22,19237,11.94,73168.3,-13.35,-27.61,-27.23,0,*6C
1487390538.48,19238,11.94,73170.5,-13.35,-27.23,-26.77,0,*65
1487390539.75,19239,11.94,73170.0,-13.35,-27.39,-26.93,0,*65
1487390540.99,19240,11.94,73172.8,-13.35,-27.77,-27.39,0,*60
1487390542.21,19241,11.94,73174.3,-13.35,-27.77,-27.29,0,*60
1487390543.46,19242,11.94,73172.8,-13.37,-27.67,-27.13,0,*69
1487390544.7,19243,11.94,73176.8,-13.35,-27.71,-27.19,0,*67
1487390545.94,19244,11.94,73176.3,-13.35,-27.71,-27.19,0,*60
1487390547.21,19245,11.94,73174.0,-13.33,-27.29,-26.93,0,*69
1487390548.48,19246,11.94,73178.0,-13.33,-27.29,-26.93,0,*6A
1487390549.78,19247,11.94,73174.5,-13.33,-27.45,-26.93,0,*61
1487390551.02,19248,11.94,73170.5,-13.33,-27.77,-27.29,0,*6F
1487390552.29,19249,11.94,73170.3,-13.33,-27.71,-27.23,0,*62
1487390553.56,19250,11.94,73168.5,-13.35,-27.39,-26.77,0,*60
1487390554.83,19251,11.94,73174.8,-13.33,-27.23,-26.65,0,*6F
1487390556.12,19252,11.94,73182.5,-13.33,-27.45,-26.93,0,*65
1487390557.39,19253,11.94,73178.8,-13.29,-27.67,-27.19,0,*6C
1487390558.63,19254,11.94,73172.3,-13.29,-27.55,-27.03,0,*61
1487390559.9,19255,11.94,73176.5,-13.33,-27.77,-27.19,0,*60
1487390561.15,19256,11.94,73176.5,-13.33,-27.55,-27.03,0,*68
1487390562.44,19257,11.94,73182.8,-13.29,-27.35,-26.81,0,*6F
1487390563.73,19258,11.94,73176.0,-13.33,-27.23,-26.71,0,*63
1487390565.02,19259,11.94,73174.0,-13.33,-27.39,-26.77,0,*6F
1487390566.29,19260,11.94,73176.0,-13.33,-27.45,-27.03,0,*6C
1487390567.57,19261,11.94,73178.5,-13.33,-27.61,-27.03,0,*6B
1487390568.84,19262,11.94,73178.8,-13.29,-27.71,-27.19,0,*69
1487390570.11,19263,11.94,73176.0,-13.33,-27.77,-27.23,0,*6C
1487390571.34,19264,11.94,73180.8,-13.29,-27.13,-26.49,0,*6F
1487390572.59,19265,11.94,73178.8,-13.29,-27.03,-26.39,0,*68
1487390573.82,19266,11.94,73172.5,-13.29,-27.13,-26.49,0,*6D
1487390575.11,19267,11.94,73174.5,-13.29,-27.39,-26.71,0,*6F
1487390576.35,19268,11.94,73176.3,-13.29,-27.55,-26.87,0,*63
1487390577.6,19269,11.94,73172.5,-13.27,-27.67,-27.19,0,*6B
1487390578.87,19270,11.94,73176.3,-13.27,-27.83,-27.23,0,*60
1487390580.13,19271,11.94,73180.3,-13.25,-27.71,-27.23,0,*6E
1487390581.35,19272,11.94,73180.5,-13.27,-27.71,-27.13,0,*6C
1487390582.6,19273,11.94,73182.3,-13.27,-27.39,-26.87,0,*6D
1487390583.88,19274,11.94,73174.5,-13.25,-27.35,-26.71,0,*6D
1487390585.13,19275,11.94,73178.5,-13.27,-27.67,-26.97,0,*61
1487390586.38,19276,11.94,73176.5,-13.27,-27.89,-27.19,0,*65
1487390587.65,19277,11.94,73176.0,-13.25,-27.51,-26.81,0,*63
1487390588.91,19278,11.94,73172.8,-13.25,-27.51,-26.97,0,*6B
1487390590.14,19279,11.94,73176.0,-13.27,-27.71,-27.03,0,*66
1487390591.38,19280,11.94,73178.0,-13.25,-27.55,-26.87,0,*69
1487390592.67,19281,11.94,73180.3,-13.25,-27.39,-26.71,0,*6B
1487390593.91,19282,11.94,73176.5,-13.25,-27.55,-27.03,0,*66
1487390595.13,19283,11.94,73182.5,-13.27,-27.67,-27.13,0,*65
1487390596.42,19284,11.94,73180.5,-13.25,-27.83,-27.19,0,*60
1487390597.66,19285,11.94,73178.8,-13.27,-27.89,-27.23,0,*60
1487390598.93,19286,11.94,73182.3,-13.25,-27.89,-27.23,0,*61
1487390600.19,19287,11.94,73182.3,-13.25,-27.83,-27.13,0,*69
1487390601.45,19288,11.94,73182.0,-13.25,-27.89,-27.19,0,*66
1487390602.74,19289,11.94,73180.8,-13.25,-27.83,-27.19,0,*6D
1487390604.03,19290,11.94,73180.3,-13.25,-27.83,-27.23,0,*6C
1487390605.32,19291,11.94,73182.0,-13.25,-27.83,-27.19,0,*64
1487390606.56,19292,11.94,73180.8,-13.27,-27.83,-27.13,0,*6F
1487390607.8,19293,11.94,73180.8,-13.27,-27.89,-27.35,0,*60
1487390609.08,19294,11.94,73180.0,-13.27,-28.05,-27.35,0,*6C
1487390610.32,19295,11.94,73180.3,-13.27,-27.89,-27.19,0,*68
1487390611.55,19296,11.94,73178.5,-13.27,-27.67,-27.03,0,*60
1487390612.83,19297,11.94,73174.5,-13.27,-27.99,-27.35,0,*65
1487390614.12,19298,11.94,73174.5,-13.25,-27.99,-27.23,0,*6F
1487390615.39,19299,11.94,73178.8,-13.27,-28.05,-27.19,0,*6F
1487390616.61,19300,11.94,73174.8,-13.27,-27.89,-27.13,0,*6F
1487390617.88,19301,11.94,73172.8,-13.27,-28.05,-27.35,0,*61
1487390619.15,19302,11.94,73174.5,-13.25,-27.89,-27.35,0,*6B
1487390620.4,19303,11.94,73178.8,-13.27,-27.51,-26.81,0,*63
1487390621.62,19304,11.94,73182.8,-13.27,-27.55,-26.87,0,*66
1487390622.84,19305,11.94,73178.8,-13.27,-27.51,-26.65,0,*6F
1487390624.09,19306,11.94,73176.5,-13.27,-27.71,-26.97,0,*63
1487390625.31,19307,11.94,73174.0,-13.27,-27.71,-27.03,0,*6E
1487390626.58,19308,11.94,73172.5,-13.25,-27.89,-27.19,0,*6F
1487390627.82,19309,11.94,73174.5,-13.25,-27.71,-27.13,0,*63
1487390629.04,19310,11.94,73182.8,-13.27,-27.55,-26.87,0,*63
1487390630.28,19311,11.94,73176.5,-13.27,-27.71,-26.97,0,*65
1487390631.51,19312,11.94,73180.0,-13.27,-27.67,-26.87,0,*60
1487390632.76,19313,11.94,73182.0,-13.25,-27.67,-27.03,0,*6E
1487390634.0,19314,11.94,73180.0,-13.25,-27.67,-26.87,0,*64
1487390635.24,19315,11.94,73176.0,-13.25,-27.03,-26.23,0,*69
1487390636.48,19316,11.94,73174.0,-13.25,-27.03,-26.23,0,*6A
1487390637.73,19317,11.94,73178.0,-13.23,-27.07,-26.29,0,*63
1487390638.97,19318,11.94,73176.0,-13.23,-27.13,-26.33,0,*62
1487390640.24,19319,11.94,73178.5,-13.23,-27.19,-26.33,0,*69
1487390641.46,19320,11.94,73176.5,-13.23,-27.29,-26.49,0,*6D
1487390642.7,19321,11.94,73176.0,-13.23,-27.67,-26.93,0,*61
1487390643.95,19322,11.94,73178.8,-13.23,-27.77,-26.97,0,*67
1487390645.19,19323,11.94,73182.3,-13.23,-27.77,-26.97,0,*66
1487390646.46,19324,11.94,73178.8,-13.23,-27.45,-26.77,0,*6E
1487390647.7,19325,11.94,73176.0,-13.23,-27.67,-26.93,0,*65
1487390648.95,19326,11.94,73178.0,-13.23,-27.67,-26.93,0,*66
1487390650.16,19327,11.94,73178.0,-13.23,-27.93,-27.13,0,*65
1487390651.41,19328,11.94,73176.0,-13.21,-27.77,-27.07,0,*67
1487390652.65,19329,11.94,73178.8,-13.23,-27.77,-26.97,0,*6C
1487390653.95,19330,11.94,73182.8,-13.21,-27.61,-26.93,0,*65
1487390655.19,19331,11.94,73180.8,-13.23,-27.77,-26.97,0,*65
1487390656.41,19332,11.94,73180.8,-13.23,-27.77,-27.07,0,*6E
1487390657.7,19333,11.94,73178.8,-13.25,-27.99,-27.19,0,*66
1487390658.95,19334,11.94,73176.5,-13.23,-27.93,-27.19,0,*6D
1487390660.19,19335,11.94,73180.5,-13.23,-27.99,-27.29,0,*65
1487390661.43,19336,11.94,73176.8,-13.23,-27.83,-27.07,0,*61
1487390662.69,19337,11.94,73174.0,-13.25,-27.35,-26.49,0,*60
1487390663.93,19338,12.0,73180.8,-13.23,-27.19,-26.45,0,*6B
1487390665.16,19339,11.94,73180.8,-13.23,-27.35,-26.49,0,*68
1487390666.4,19340,11.94,73178.8,-13.23,-27.67,-26.93,0,*66
1487390667.65,19341,11.94,73176.8,-13.23,-27.67,-26.93,0,*67
1487390668.94,19342,11.94,73182.3,-13.21,-27.83,-26.97,0,*68
1487390670.16,19343,11.94,73180.0,-13.23,-27.93,-27.07,0,*62
1487390671.38,19344,11.94,73176.0,-13.23,-27.93,-27.07,0,*65
1487390672.59,19345,11.94,73180.8,-13.23,-27.93,-27.13,0,*61
1487390673.83,19346,11.94,73178.8,-13.21,-27.77,-27.07,0,*6F
1487390675.07,19347,11.94,73180.5,-13.23,-27.83,-27.07,0,*67
1487390676.34,19348,11.94,73178.0,-13.23,-27.83,-26.97,0,*60
1487390677.58,19349,11.94,73182.0,-13.23,-27.83,-27.07,0,*69
1487390678.8,19350,11.94,73176.5,-13.23,-27.77,-27.07,0,*6A
1487390680.07,19351,11.94,73178.5,-13.23,-27.61,-26.93,0,*60
1487390681.34,19352,11.94,73180.0,-13.23,-27.83,-26.97,0,*6B
1487390682.61,19353,11.94,73178.8,-13.21,-27.77,-26.97,0,*63
1487390683.85,19354,11.94,73180.0,-13.23,-27.77,-26.97,0,*66
1487390685.12,19355,11.94,73180.5,-13.23,-27.61,-26.93,0,*64
1487390686.39,19356,11.94,73178.5,-13.21,-27.13,-26.33,0,*6A
1487390687.63,19357,11.94,73174.5,-13.23,-27.35,-26.61,0,*6A
1487390688.9,19358,11.94,73174.8,-13.21,-27.51,-26.81,0,*6B
1487390690.14,19359,11.94,73172.0,-13.23,-27.67,-26.81,0,*6D
1487390691.41,19360,11.94,73176.5,-13.21,-27.77,-26.97,0,*63
1487390692.65,19361,11.94,73172.5,-13.21,-27.77,-27.13,0,*6F
1487390693.92,19362,11.94,73178.5,-13.21,-27.77,-26.93,0,*65
1487390695.19,19363,11.94,73180.5,-13.23,-27.45,-26.81,0,*64
1487390696.4,19364,11.94,73178.0,-13.23,-27.51,-26.65,0,*6C
1487390697.67,19365,11.94,73178.5,-13.21,-27.77,-26.97,0,*66
1487390698.94,19366,11.94,73178.5,-13.23,-27.83,-26.93,0,*68
1487390700.22,19367,11.94,73176.8,-13.21,-27.83,-26.97,0,*6F
1487390701.46,19368,11.94,73178.3,-13.23,-27.83,-27.07,0,*6A
1487390702.7,19369,11.94,73176.3,-13.21,-27.93,-27.13,0,*6D
1487390703.92,19370,11.94,73176.5,-13.23,-27.77,-27.07,0,*68
1487390705.16,19371,11.94,73176.8,-13.23,-27.51,-26.77,0,*6B
1487390706.41,19372,11.94,73180.0,-13.23,-27.67,-26.81,0,*64
1487390707.68,19373,11.94,73178.5,-13.23,-27.83,-26.97,0,*68
1487390708.91,19374,11.94,73178.0,-13.23,-27.83,-27.13,0,*62
1487390710.13,19375,11.94,73178.8,-13.23,-27.77,-27.07,0,*6D
1487390711.42,19376,11.94,73176.0,-13.21,-27.83,-26.97,0,*6F
1487390712.66,19377,11.94,73178.0,-13.23,-27.99,-27.13,0,*6A
1487390713.94,19378,11.94,73174.0,-13.23,-27.61,-26.81,0,*68
1487390715.18,19379,11.94,73178.8,-13.23,-27.83,-27.07,0,*6A
1487390716.4,19380,11.94,73176.0,-13.23,-27.93,-27.07,0,*6D
1487390717.64,19381,11.94,73176.8,-13.23,-27.93,-26.97,0,*64
1487390718.89,19382,11.94,73176.0,-13.23,-27.77,-26.97,0,*6D
1487390720.18,19383,11.94,73176.0,-13.25,-27.99,-27.19,0,*6D
1487390721.47,19384,11.94,73180.5,-13.25,-28.05,-27.19,0,*60
1487390722.76,19385,11.94,73178.0,-13.25,-27.83,-26.97,0,*67
1487390724.03,19386,11.94,73178.3,-13.25,-28.05,-27.13,0,*68
1487390725.27,19387,11.94,73180.8,-13.27,-27.99,-27.13,0,*61
1487390726.56,19388,11.94,73178.0,-13.25,-27.83,-26.97,0,*6A
1487390727.8,19389,11.94,73178.8,-13.25,-27.89,-27.13,0,*6C
1487390729.07,19390,11.94,73178.8,-13.25,-27.99,-27.13,0,*65
1487390730.3,19391,11.94,73176.0,-13.25,-27.89,-27.13,0,*65
1487390731.55,19392,11.94,73176.5,-13.27,-27.89,-27.19,0,*6E
1487390732.81,19393,11.94,73178.8,-13.25,-27.89,-27.19,0,*6D
1487390734.11,19394,11.94,73178.8,-13.25,-28.05,-27.35,0,*6F
1487390735.41,19395,11.94,73176.8,-13.25,-28.05,-27.23,0,*69
1487390736.64,19396,11.94,73178.0,-13.25,-27.89,-27.13,0,*62
1487390737.94,19397,11.94,73174.5,-13.25,-28.05,-27.23,0,*6B
1487390739.23,19398,11.94,73174.8,-13.25,-28.05,-27.23,0,*64
1487390740.53,19399,11.94,73174.3,-13.25,-27.99,-27.19,0,*66
1487390741.8,19400,11.94,73174.5,-13.27,-28.05,-27.19,0,*69
1487390743.06,19401,11.94,73176.8,-13.25,-27.83,-27.03,0,*60
1487390744.33,19402,11.94,73174.5,-13.27,-27.99,-27.19,0,*61
1487390745.58,19403,11.94,73176.5,-13.27,-27.89,-26.97,0,*66
1487390746.84,19404,11.94,73178.0,-13.25,-27.83,-27.13,0,*64
1487390748.11,19405,11.94,73176.8,-13.27,-27.99,-27.19,0,*66
1487390749.36,19406,11.94,73176.5,-13.27,-28.15,-27.19,0,*6E
1487390750.6,19407,11.94,73182.3,-13.27,-27.99,-27.13,0,*6E
1487390751.85,19408,11.94,73176.3,-13.27,-27.99,-27.03,0,*60
1487390753.11,19409,11.94,73178.0,-13.27,-27.83,-26.97,0,*66
1487390754.33,19410,11.94,73174.8,-13.27,-27.89,-27.13,0,*69
1487390755.57,19411,11.94,73176.0,-13.29,-27.89,-27.13,0,*66
1487390756.83,19412,11.94,73176.5,-13.29,-27.99,-27.13,0,*64
1487390758.12,19413,11.94,73172.8,-13.29,-27.99,-27.19,0,*6F
1487390759.4,19414,11.94,73178.8,-13.29,-27.67,-26.81,0,*69
1487390760.64,19415,11.94,73176.5,-13.27,-27.71,-26.97,0,*66
1487390761.93,19416,11.94,73178.5,-13.29,-27.83,-26.97,0,*66
1487390763.17,19417,11.94,73176.0,-13.29,-27.89,-27.03,0,*61
1487390764.41,19418,11.94,73178.3,-13.29,-27.89,-27.13,0,*6F
1487390765.66,19419,11.94,73178.8,-13.27,-27.71,-26.97,0,*6A
1487390766.92,19420,11.94,73180.5,-13.29,-27.99,-27.13,0,*65
1487390768.16,19421,11.94,73178.5,-13.29,-27.89,-27.13,0,*65
1487390769.41,19422,11.94,73178.5,-13.27,-27.89,-26.97,0,*65
1487390770.65,19423,11.94,73178.8,-13.27,-27.39,-26.65,0,*62
1487390771.9,19424,11.94,73174.8,-13.27,-27.51,-26.71,0,*6E
1487390773.17,19425,11.94,73172.0,-13.27,-27.83,-26.97,0,*68
1487390774.41,19426,11.94,73174.3,-13.25,-27.51,-26.65,0,*6B
1487390775.63,19427,11.94,73178.5,-13.27,-27.89,-27.03,0,*6C
1487390776.85,19428,11.94,73178.0,-13.27,-27.67,-26.87,0,*6E
1487390778.12,19429,11.94,73178.5,-13.29,-27.39,-26.65,0,*66
1487390779.39,19430,11.94,73176.5,-13.29,-27.71,-26.97,0,*6F
1487390780.65,19431,11.94,73178.3,-13.29,-27.71,-26.81,0,*69
1487390781.92,19432,11.94,73176.3,-13.27,-27.39,-26.55,0,*61
1487390783.16,19433,11.94,73176.8,-13.27,-27.55,-26.71,0,*6C
1487390784.39,19434,11.94,73178.8,-13.27,-27.67,-26.87,0,*63
1487390785.63,19435,11.94,73176.5,-13.27,-27.83,-27.03,0,*65
1487390786.9,19436,11.94,73174.8,-13.27,-27.99,-27.19,0,*66
1487390788.12,19437,11.94,73174.0,-13.27,-27.89,-27.13,0,*6C
1487390789.39,19438,11.94,73178.8,-13.27,-27.99,-27.19,0,*68
1487390790.61,19439,11.94,73178.8,-13.27,-27.67,-26.87,0,*6E
1487390791.88,19440,11.94,73172.5,-13.29,-27.55,-26.81,0,*69
1487390793.13,19441,11.94,73172.0,-13.27,-27.67,-26.71,0,*68
1487390794.39,19442,11.94,73172.3,-13.29,-27.55,-26.71,0,*64
1487390795.63,19443,11.94,73176.8,-13.29,-27.55,-26.65,0,*60
1487390796.9,19444,11.94,73176.8,-13.29,-27.71,-26.97,0,*6C
1487390798.16,19445,11.94,73176.3,-13.29,-27.83,-26.87,0,*61
1487390799.43,19446,11.94,73176.5,-13.29,-27.67,-26.71,0,*61
1487390800.7,19447,11.94,73174.3,-13.33,-27.61,-26.87,0,*64
1487390801.94,19448,11.94,73172.8,-13.29,-27.71,-26.87,0,*61
1487390803.17,19449,11.94,73178.8,-13.27,-27.67,-26.87,0,*69
1487390804.39,19450,11.94,73176.5,-13.27,-27.71,-26.87,0,*66
1487390805.65,19451,11.94,73176.3,-13.29,-27.83,-27.13,0,*68
1487390806.91,19452,11.94,73180.0,-13.29,-27.99,-27.13,0,*60
1487390808.15,19453,11.94,73178.8,-13.29,-27.89,-27.13,0,*60
1487390809.39,19454,11.94,73182.5,-13.29,-27.67,-26.87,0,*6B
1487390810.64,19455,11.94,73180.0,-13.29,-27.67,-27.03,0,*67
1487390811.9,19456,11.94,73176.3,-13.29,-27.83,-27.03,0,*6E
1487390813.17,19457,11.94,73178.3,-13.33,-27.71,-26.93,0,*61
1487390814.41,19458,11.94,73178.3,-13.29,-27.89,-27.03,0,*6A
1487390815.66,19459,11.94,73182.5,-13.29,-27.89,-27.03,0,*6B
1487390816.9,19460,11.94,73178.0,-13.29,-27.51,-26.65,0,*65
1487390818.14,19461,11.94,73176.3,-13.29,-27.51,-26.65,0,*64
1487390819.4,19462,11.94,73176.8,-13.33,-27.77,-26.93,0,*61
1487390820.67,19463,11.94,73172.8,-13.29,-27.83,-26.87,0,*65
1487390821.91,19464,11.94,73178.0,-13.29,-27.89,-27.03,0,*65
1487390823.2,19465,11.94,73176.5,-13.29,-27.83,-26.97,0,*62
1487390824.44,19466,11.94,73178.3,-13.29,-27.67,-26.87,0,*6A
1487390825.69,19467,11.94,73176.3,-13.33,-27.93,-27.07,0,*62
1487390826.95,19468,11.94,73176.0,-13.29,-27.83,-27.13,0,*62
1487390828.22,19469,11.94,73178.0,-13.33,-27.61,-26.87,0,*68
1487390829.49,19470,11.94,73178.5,-13.33,-27.55,-26.77,0,*68
1487390830.76,19471,11.94,73174.8,-13.33,-27.71,-26.77,0,*6F
1487390832.02,19472,11.94,73170.3,-13.29,-27.51,-26.71,0,*63
1487390833.32,19473,11.94,73174.8,-13.33,-27.45,-26.55,0,*6A
1487390834.58,19474,11.94,73174.5,-13.33,-27.45,-26.61,0,*6A
1487390835.89,19475,11.94,73172.8,-13.33,-27.61,-26.93,0,*60
1487390837.13,19476,11.94,73178.0,-13.33,-27.77,-27.03,0,*6C
1487390838.37,19477,11.94,73176.5,-13.33,-27.71,-26.87,0,*66
1487390839.64,19478,11.94,73176.0,-13.29,-27.55,-26.71,0,*6D
1487390840.9,19479,11.94,73170.5,-13.29,-27.55,-26.71,0,*6C
1487390842.17,19480,11.94,73176.0,-13.29,-27.71,-26.97,0,*64
1487390843.44,19481,11.94,73178.8,-13.29,-27.67,-26.81,0,*65
1487390844.68,19482,11.94,73178.5,-13.33,-27.71,-26.87,0,*6C
1487390845.93,19483,11.94,73176.8,-13.29,-27.67,-26.87,0,*61
1487390847.16,19484,11.94,73178.5,-13.29,-27.71,-26.87,0,*61
1487390848.41,19485,11.94,73178.0,-13.33,-27.77,-27.03,0,*60
1487390849.66,19486,11.94,73178.8,-13.33,-27.89,-27.03,0,*62
1487390850.92,19487,11.94,73172.5,-13.33,-27.71,-26.93,0,*6C
1487390852.19,19488,11.94,73172.8,-13.33,-27.77,-26.93,0,*65
1487390853.44,19489,11.94,73174.3,-13.33,-27.89,-27.07,0,*69
1487390854.68,19490,11.94,73178.8,-13.33,-27.71,-26.87,0,*6F
1487390855.95,19491,11.94,73178.8,-13.33,-27.71,-26.77,0,*61
1487390857.19,19492,11.94,73178.3,-13.33,-27.71,-26.87,0,*6D
1487390858.47,19493,11.94,73178.3,-13.33,-27.61,-26.87,0,*6D
1487390859.71,19494,11.94,73178.0,-13.33,-27.71,-26.87,0,*6B
1487390860.98,19495,11.94,73180.8,-13.33,-27.71,-26.93,0,*6F
1487390862.24,19496,11.94,73176.3,-13.29,-27.55,-26.71,0,*6D
1487390863.49,19497,11.94,73176.8,-13.33,-27.77,-27.03,0,*63
1487390864.75,19498,11.94,73176.5,-13.33,-27.71,-26.93,0,*62
1487390865.99,19499,11.94,73180.5,-13.35,-27.77,-26.93,0,*63
1487390867.21,19500,11.94,73176.8,-13.35,-27.77,-27.07,0,*6E
1487390868.45,19501,11.94,73176.8,-13.33,-27.71,-26.87,0,*66
1487390869.72,19502,11.94,73176.0,-13.33,-27.77,-26.93,0,*66
1487390870.96,19503,11.94,73180.0,-13.33,-27.89,-27.07,0,*6A
1487390872.18,19504,11.94,73182.8,-13.35,-27.89,-27.03,0,*6F
1487390873.43,19505,11.94,73182.0,-13.35,-27.93,-27.19,0,*6E
1487390874.67,19506,11.94,73178.3,-13.35,-27.77,-26.93,0,*64
1487390875.91,19507,11.94,73180.8,-13.35,-27.77,-26.93,0,*65
1487390877.13,19508,11.94,73180.0,-13.35,-27.89,-27.03,0,*63
1487390878.37,19509,11.94,73178.5,-13.37,-27.93,-27.07,0,*6F
1487390879.59,19510,11.94,73180.3,-13.35,-27.77,-27.03,0,*6B
1487390880.86,19511,11.94,73180.0,-13.37,-27.77,-26.97,0,*64
1487390882.13,19512,11.94,73182.0,-13.35,-27.61,-26.77,0,*6C
1487390883.35,19513,11.94,73176.3,-13.35,-27.77,-26.87,0,*65
1487390884.59,19514,11.94,73176.5,-13.35,-27.77,-26.93,0,*67
1487390885.84,19515,11.94,73178.0,-13.35,-27.61,-26.87,0,*64
1487390887.08,19516,11.94,73178.3,-13.35,-27.71,-26.93,0,*63
1487390888.36,19517,11.94,73178.8,-13.35,-27.61,-26.77,0,*69
1487390889.62,19518,11.94,73180.5,-13.37,-27.67,-26.93,0,*68
1487390890.86,19519,11.94,73176.5,-13.35,-27.71,-26.93,0,*6C
1487390892.08,19520,11.94,73178.0,-13.35,-27.89,-27.07,0,*6D
1487390893.37,19521,11.94,73182.0,-13.37,-27.83,-26.97,0,*6C